Location: Burtsch�tz
(51.0528°N, 12.1764°E)
Time: 07:53:37
(UTC+00:00)

ATLAS 5 CENTAUR R/B - Pass Details

Date: 29 October 2020
Orbit: 522 x 1136 km, 63.4° (Epoch: 30 November)

Event Time Altitude Azimuth Distance (km) Brightness Sun altitude
Rises 19:55:22 0° 313° (NW) 3,080 6.0 -38.2°
Reaches altitude 10° 19:57:44 10° 323° (NW) 2,251 5.0 -38.5°
Enters shadow 19:59:08 18° 332° (NNW) 1,814 4.4 -38.7°
